Frankfort, MI

3:56 AM EST on December 08, 2019 (GMT -0500)
Frankfort

Weather History for KFKS - October, 2019

Change the Weather History Date:

Thursday, October 3, 2019

  Actual Average (KMBL) Record (KMBL)
Temperature  
Mean Temperature 56 °F -  
Max Temperature 62 °F 65 °F 83 °F (1971)
Min Temperature 51 °F 46 °F 27 °F (1981)
Degree Days  
Heating Degree Days 8    
Growing Degree Days 6 (Base 50)    
Moisture  
Dew Point 48 °F    
Average Humidity 73    
Maximum Humidity 85    
Minimum Humidity 58    
Precipitation  
Precipitation 0.00 in - - ()
Sea Level Pressure  
Sea Level Pressure 30.01 in    
Wind  
Wind Speed 9 mph (NNW)    
Max Wind Speed 22 mph    
Max Gust Speed 29 mph    
Visibility 9 miles    
Events Rain    
Averages and records for this station are not official NWS values.
T = Trace of Precipitation, MM = Missing Value Source: NWS Daily Summary

Daily Weather History Graph

Daily Weather History Graph

Search for Another Location

Airport or City:

Astronomy

Oct. 03, 2019 Rise Set
Actual Time 7:44 AM EDT 7:22 PM EDT
Civil Twilight 7:15 AM EDT 7:51 PM EDT
Nautical Twilight 6:41 AM EDT 8:24 PM EDT
Astronomical Twilight 6:07 AM EDT 8:59 PM EDT
Moon 1:27 PM EDT (10/3) 10:48 PM EDT (10/3)
Length of Visible Light 12h 35m
Length of Day
11h 37m
Waxing Crescent, 29% of the Moon is Illuminated
Oct 3
Waxing Crescent
Oct 5
First Quarter
Oct 13
Full
Oct 21
Last Quarter
Oct 27
New

Hourly Weather History & Observations

Time (EDT) Temp. Dew Point Humidity Pressure Visibility Wind Dir Wind Speed Gust Speed Precip Events Conditions
12:15 AM 52.3 °F 43.9 °F 73% 30.05 in 10.0 mi ESE 9.2 mph - N/A   Overcast
12:35 AM 52.3 °F 43.7 °F 72% 30.05 in 10.0 mi East 9.2 mph - N/A Rain Light Rain
12:39 AM 52.5 °F 43.7 °F 72% 30.04 in 10.0 mi ESE 10.4 mph - N/A   Light Drizzle
12:58 AM 52.7 °F 43.3 °F 70% 30.04 in 10.0 mi East 8.1 mph - N/A   Overcast
1:16 AM 52.7 °F 43.2 °F 70% 30.03 in 10.0 mi ESE 10.4 mph 18.4 mph N/A   Overcast
1:35 AM 52.7 °F 43.5 °F 71% 30.03 in 10.0 mi ESE 6.9 mph - N/A   Overcast
1:55 AM 52.7 °F 43.2 °F 70% 30.02 in 10.0 mi East 9.2 mph - N/A Rain Light Rain
1:56 AM 52.7 °F 43.3 °F 70% 30.02 in 10.0 mi East 9.2 mph - N/A Rain Light Rain
2:19 AM 52.3 °F 43.7 °F 72% 30.01 in 10.0 mi East 9.2 mph - N/A   Overcast
2:37 AM 52.7 °F 43.7 °F 71% 30.01 in 10.0 mi East 6.9 mph - N/A   Overcast
2:55 AM 52.7 °F 43.9 °F 72% 30.00 in 10.0 mi East 5.8 mph 16.1 mph N/A   Overcast
3:15 AM 52.7 °F 43.9 °F 72% 29.99 in 10.0 mi East 6.9 mph 16.1 mph N/A   Overcast
3:16 AM 52.7 °F 43.9 °F 72% 29.99 in 10.0 mi East 5.8 mph 16.1 mph N/A   Overcast
3:35 AM 52.5 °F 44.4 °F 74% 29.98 in 10.0 mi East 6.9 mph - N/A   Light Drizzle
3:40 AM 52.3 °F 44.6 °F 75% 29.98 in 10.0 mi East 5.8 mph - N/A   Light Drizzle
3:58 AM 52.3 °F 44.6 °F 75% 29.98 in 10.0 mi East 5.8 mph - N/A   Overcast
4:16 AM 52.5 °F 44.8 °F 75% 29.98 in 10.0 mi East 5.8 mph - N/A Rain Light Rain
4:35 AM 52.0 °F 45.5 °F 79% 29.98 in 5.0 mi Calm Calm - N/A   Drizzle
4:36 AM 52.0 °F 45.5 °F 79% 29.98 in 5.0 mi ESE 3.5 mph - N/A   Drizzle
4:55 AM 51.8 °F 46.0 °F 81% 29.98 in 4.0 mi East 6.9 mph - N/A   Light Drizzle
4:56 AM 51.8 °F 46.0 °F 81% 29.98 in 4.0 mi East 5.8 mph - N/A   Light Drizzle
5:19 AM 51.4 °F 46.4 °F 83% 29.98 in 4.0 mi ENE 3.5 mph - N/A   Drizzle
5:37 AM 51.4 °F 46.8 °F 84% 29.97 in 4.0 mi East 3.5 mph - N/A   Light Drizzle
5:55 AM 51.6 °F 46.8 °F 83% 29.98 in 5.0 mi NNE 3.5 mph - N/A Rain Light Rain
6:15 AM 52.0 °F 47.3 °F 84% 29.99 in 5.0 mi ESE 4.6 mph - N/A   Drizzle
6:35 AM 52.0 °F 47.3 °F 84% 29.98 in 5.0 mi NE 4.6 mph - N/A   Drizzle
6:40 AM 52.0 °F 47.3 °F 84% 29.98 in 5.0 mi ENE 4.6 mph - N/A   Drizzle
6:58 AM 52.0 °F 47.3 °F 84% 29.96 in 5.0 mi East 4.6 mph - N/A   Light Drizzle
7:16 AM 52.0 °F 47.3 °F 84% 29.96 in 10.0 mi East 3.5 mph - N/A   Overcast
7:35 AM 52.0 °F 47.3 °F 84% 29.95 in 10.0 mi East 4.6 mph - N/A   Overcast
7:36 AM 52.0 °F 47.3 °F 84% 29.95 in 10.0 mi East 4.6 mph - N/A   Overcast
7:55 AM 52.0 °F 47.3 °F 84% 29.95 in 10.0 mi East 4.6 mph - N/A   Overcast
7:56 AM 52.0 °F 47.3 °F 84% 29.95 in 10.0 mi East 4.6 mph - N/A   Overcast
8:19 AM 52.0 °F 47.3 °F 84% 29.94 in 10.0 mi ESE 4.6 mph - N/A   Overcast
8:37 AM 52.2 °F 47.5 °F 84% 29.93 in 10.0 mi ESE 6.9 mph - N/A   Overcast
8:55 AM 52.7 °F 48.0 °F 84% 29.93 in 10.0 mi ESE 4.6 mph - N/A   Overcast
8:56 AM 52.7 °F 48.2 °F 85% 29.93 in 10.0 mi ESE 5.8 mph - N/A   Overcast
9:15 AM 53.2 °F 48.4 °F 84% 29.93 in 10.0 mi SE 4.6 mph - N/A   Overcast
9:16 AM 53.2 °F 48.4 °F 84% 29.93 in 10.0 mi SE 3.5 mph - N/A   Overcast
9:35 AM 53.8 °F 48.7 °F 83% 29.93 in 10.0 mi ESE 4.6 mph - N/A   Overcast
9:58 AM 54.3 °F 49.1 °F 83% 29.93 in 10.0 mi Calm Calm - N/A   Overcast
10:16 AM 54.7 °F 49.5 °F 83% 29.94 in 10.0 mi South 3.5 mph - N/A   Overcast
10:35 AM 55.0 °F 49.8 °F 83% 29.94 in 5.0 mi Calm Calm - N/A   Haze
10:36 AM 55.2 °F 49.8 °F 82% 29.94 in 5.0 mi Calm Calm - N/A   Haze
10:55 AM 56.1 °F 51.1 °F 83% 29.94 in 7.0 mi Calm Calm - N/A   Overcast
11:18 AM 56.7 °F 50.9 °F 81% 29.94 in 10.0 mi South 4.6 mph - N/A   Overcast
11:36 AM 57.2 °F 51.6 °F 82% 29.94 in 10.0 mi SSW 3.5 mph - N/A   Overcast
11:55 AM 57.7 °F 52.0 °F 81% 29.94 in 5.0 mi SSW 4.6 mph - N/A   Haze
12:15 PM 58.5 °F 52.7 °F 81% 29.94 in 10.0 mi WSW 4.6 mph - N/A   Overcast
12:16 PM 58.5 °F 52.7 °F 81% 29.94 in 10.0 mi WSW 3.5 mph - N/A   Overcast
12:39 PM 59.4 °F 52.7 °F 79% 29.95 in 10.0 mi West 6.9 mph - N/A   Overcast
12:57 PM 59.5 °F 52.9 °F 79% 29.95 in 5.0 mi WSW 10.4 mph 16.1 mph N/A   Haze
1:15 PM 61.2 °F 53.2 °F 75% 29.95 in 10.0 mi WSW 6.9 mph 16.1 mph N/A   Overcast
1:35 PM 61.0 °F 53.2 °F 76% 29.95 in 7.0 mi West 9.2 mph 16.1 mph N/A   Overcast
1:36 PM 61.0 °F 53.1 °F 75% 29.95 in 7.0 mi West 8.1 mph 16.1 mph N/A   Overcast
1:55 PM 60.8 °F 53.2 °F 76% 29.96 in 10.0 mi West 8.1 mph 16.1 mph N/A   Overcast
2:00 PM 61.2 °F 53.6 °F 76% 29.96 in 10.0 mi West 11.5 mph 16.1 mph N/A   Overcast
2:17 PM 60.8 °F 52.7 °F 75% 29.96 in 10.0 mi West 10.4 mph - N/A   Overcast
2:36 PM 61.0 °F 52.3 °F 73% 29.96 in 10.0 mi West 11.5 mph 16.1 mph N/A   Overcast
2:55 PM 61.0 °F 51.8 °F 72% 29.96 in 10.0 mi WNW 12.7 mph 19.6 mph N/A   Overcast
2:56 PM 61.0 °F 51.8 °F 72% 29.96 in 10.0 mi WNW 11.5 mph 19.6 mph N/A   Overcast
3:15 PM 60.8 °F 51.3 °F 71% 29.97 in 10.0 mi WNW 12.7 mph 24.2 mph N/A   Overcast
3:16 PM 60.8 °F 51.1 °F 70% 29.97 in 10.0 mi WNW 12.7 mph 24.2 mph N/A   Overcast
3:39 PM 61.2 °F 50.9 °F 69% 29.98 in 10.0 mi WNW 15.0 mph 20.7 mph N/A   Overcast
3:57 PM 61.5 °F 50.0 °F 66% 29.98 in 10.0 mi West 15.0 mph 23.0 mph N/A   Overcast
4:15 PM 61.5 °F 49.3 °F 64% 29.99 in 10.0 mi WNW 13.8 mph 24.2 mph N/A   Overcast
4:16 PM 61.7 °F 49.5 °F 64% 29.99 in 10.0 mi WNW 16.1 mph 24.2 mph N/A   Overcast
4:35 PM 61.7 °F 49.1 °F 63% 29.99 in 10.0 mi WNW 17.3 mph 24.2 mph N/A   Overcast
4:36 PM 61.7 °F 49.1 °F 63% 29.99 in 10.0 mi WNW 15.0 mph 24.2 mph N/A   Overcast
4:55 PM 62.4 °F 48.7 °F 61% 30.00 in 10.0 mi West 16.1 mph 21.9 mph N/A   Overcast
5:00 PM 62.1 °F 48.6 °F 61% 30.00 in 10.0 mi West 15.0 mph 20.7 mph N/A   Overcast
5:18 PM 61.5 °F 48.9 °F 63% 30.01 in 10.0 mi WNW 17.3 mph 23.0 mph N/A   Overcast
5:36 PM 60.8 °F 48.9 °F 65% 30.02 in 10.0 mi WNW 17.3 mph 27.6 mph N/A   Overcast
5:55 PM 60.3 °F 46.8 °F 61% 30.02 in 10.0 mi WNW 19.6 mph 27.6 mph N/A   Overcast
5:56 PM 60.3 °F 46.8 °F 61% 30.02 in 10.0 mi WNW 19.6 mph 27.6 mph N/A   Overcast
6:15 PM 60.4 °F 46.6 °F 60% 30.04 in 10.0 mi WNW 19.6 mph 26.5 mph N/A   Overcast
6:16 PM 60.4 °F 46.8 °F 61% 30.04 in 10.0 mi West 20.7 mph 26.5 mph N/A   Overcast
6:39 PM 60.1 °F 45.1 °F 58% 30.05 in 10.0 mi WNW 21.9 mph 28.8 mph N/A   Overcast
6:57 PM 59.7 °F 45.5 °F 59% 30.05 in 10.0 mi WNW 18.4 mph 26.5 mph N/A   Mostly Cloudy
7:15 PM 58.8 °F 44.8 °F 60% 30.06 in 10.0 mi WNW 19.6 mph 25.3 mph N/A   Mostly Cloudy
7:16 PM 58.6 °F 44.6 °F 60% 30.06 in 10.0 mi WNW 17.3 mph 25.3 mph N/A   Mostly Cloudy
7:35 PM 58.3 °F 43.7 °F 58% 30.08 in 10.0 mi WNW 16.1 mph 26.5 mph N/A   Mostly Cloudy
7:36 PM 58.1 °F 43.7 °F 59% 30.08 in 10.0 mi WNW 17.3 mph 26.5 mph N/A   Mostly Cloudy
7:55 PM 58.3 °F 44.6 °F 60% 30.08 in 10.0 mi WNW 12.7 mph 25.3 mph N/A   Mostly Cloudy
8:18 PM 58.6 °F 45.1 °F 61% 30.09 in 10.0 mi NW 18.4 mph 24.2 mph N/A   Overcast
8:36 PM 58.6 °F 45.5 °F 62% 30.10 in 10.0 mi NW 16.1 mph 24.2 mph N/A   Overcast
8:55 PM 58.8 °F 45.3 °F 61% 30.11 in 10.0 mi WNW 15.0 mph 24.2 mph N/A   Overcast
8:56 PM 58.8 °F 45.3 °F 61% 30.11 in 10.0 mi WNW 18.4 mph 24.2 mph N/A   Overcast
9:15 PM 58.6 °F 46.0 °F 63% 30.12 in 10.0 mi WNW 18.4 mph 26.5 mph N/A   Overcast
9:16 PM 58.6 °F 46.0 °F 63% 30.11 in 10.0 mi WNW 19.6 mph 26.5 mph N/A   Overcast
9:39 PM 56.5 °F 48.4 °F 74% 30.13 in 4.0 mi NW 11.5 mph 21.9 mph N/A Rain Heavy Rain
9:57 PM 55.8 °F 49.5 °F 79% 30.14 in 7.0 mi NW 10.4 mph - N/A Rain Light Rain
10:15 PM 55.8 °F 50.4 °F 82% 30.14 in 7.0 mi NNW 6.9 mph - N/A Rain Light Rain
10:16 PM 55.8 °F 50.4 °F 82% 30.14 in 5.0 mi NNW 6.9 mph - N/A Rain Light Rain
10:35 PM 55.9 °F 48.4 °F 76% 30.16 in 10.0 mi North 6.9 mph - N/A   Overcast
10:36 PM 55.8 °F 48.2 °F 76% 30.16 in 10.0 mi NNW 6.9 mph - N/A   Overcast
10:55 PM 55.6 °F 47.1 °F 73% 30.17 in 10.0 mi North 11.5 mph 16.1 mph N/A   Mostly Cloudy
11:00 PM 55.6 °F 46.8 °F 72% 30.17 in 10.0 mi North 10.4 mph 16.1 mph N/A   Mostly Cloudy
11:18 PM 55.4 °F 46.6 °F 72% 30.18 in 10.0 mi North 8.1 mph - N/A   Mostly Cloudy
11:36 PM 55.6 °F 46.4 °F 71% 30.19 in 10.0 mi North 9.2 mph 17.3 mph N/A   Overcast
11:55 PM 55.8 °F 44.8 °F 67% 30.20 in 10.0 mi North 8.1 mph - N/A   Overcast
11:56 PM 55.8 °F 44.8 °F 67% 30.20 in 10.0 mi North 5.8 mph - N/A   Overcast